Weather History for Tallahassee, FL

Change the Weather History Date:

Friday, March 14, 2014

  Actual Average Record
Temperature  
Mean Temperature 51 °F 60 °F  
Max Temperature 69 °F 74 °F 87 °F (1911)
Min Temperature 33 °F 47 °F 25 °F (1993)
Degree Days  
Heating Degree Days 14    
Month to date heating degree days 126  
Since 1 July heating degree days 1269  
Cooling Degree Days 0    
Month to date cooling degree days 1  
Year to date cooling degree days 13  
Growing Degree Days 1 (Base 50)    
Moisture  
Dew Point 29 °F    
Average Humidity 50    
Maximum Humidity 82    
Minimum Humidity 17    
Precipitation  
Precipitation 0.00 in 0.20 in 1.72 in (1999)
Month to date precipitation 2.55 2.95  
Year to date precipitation 10.60 12.14  
Sea Level Pressure  
Sea Level Pressure 30.25 in    
Wind  
Wind Speed 4 mph (SSE)    
Max Wind Speed 15 mph    
Max Gust Speed 21 mph    
Visibility 10 miles    
Events      
T = Trace of Precipitation, MM = Missing Value Source: NWS Daily Summary

Daily Weather History Graph

Daily Weather History Graph

Search for Another Location

Airport:

Trip Planner

Search our weather history database for the weather conditions in past years. The results will help you decide how hot, cold, wet, or windy it might be!

Date:

Astronomy

Mar. 14, 2014 Rise Set
Actual Time 7:48 AM EDT 7:45 PM EDT
Civil Twilight 7:24 AM EDT 8:09 PM EDT
Nautical Twilight 6:56 AM EDT 8:36 PM EDT
Astronomical Twilight 6:28 AM EDT 9:04 PM EDT
Moon 6:10 PM EDT (3/14) 6:21 AM EDT (3/14)
Length of Visible Light 12h 44m
Length of Day
11h 56m
Waxing Gibbous, 96% of the Moon is Illuminated
Mar 14
Waxing Gibbous
Mar 16
Full
Mar 23
Last Quarter
Mar 30
New
Apr 7
First Quarter

Hourly Weather History & Observations

Time (EDT) Temp. Dew Point Humidity Pressure Visibility Wind Dir Wind Speed Gust Speed Precip Events Conditions
12:53 AM 37.9 °F 32.0 °F 79% 30.26 in 10.0 mi Calm Calm - N/A   Clear
1:53 AM 37.0 °F 30.9 °F 79% 30.25 in 10.0 mi Calm Calm - N/A   Clear
2:53 AM 36.0 °F 30.9 °F 82% 30.25 in 10.0 mi Calm Calm - N/A   Clear
3:53 AM 35.1 °F 30.9 °F 85% 30.25 in 10.0 mi Calm Calm - N/A   Clear
4:53 AM 34.0 °F 28.9 °F 82% 30.25 in 10.0 mi Calm Calm - N/A   Clear
5:53 AM 35.1 °F 30.0 °F 82% 30.26 in 10.0 mi Calm Calm - N/A   Clear
6:53 AM 35.1 °F 30.0 °F 82% 30.27 in 10.0 mi Calm Calm - N/A   Clear
7:53 AM 33.1 °F 28.0 °F 82% 30.28 in 10.0 mi Calm Calm - N/A   Clear
8:53 AM 39.9 °F 32.0 °F 73% 30.30 in 10.0 mi Calm Calm - N/A   Clear
9:53 AM 54.0 °F 26.1 °F 34% 30.31 in 10.0 mi ESE 11.5 mph - N/A   Clear
10:53 AM 59.0 °F 25.0 °F 27% 30.33 in 10.0 mi ESE 10.4 mph - N/A   Clear
11:53 AM 62.1 °F 21.9 °F 21% 30.34 in 10.0 mi ESE 6.9 mph - N/A   Clear
12:53 PM 64.9 °F 21.9 °F 19% 30.32 in 10.0 mi South 8.1 mph 16.1 mph N/A   Clear
1:53 PM 66.9 °F 23.0 °F 19% 30.29 in 10.0 mi Variable 6.9 mph - N/A   Clear
2:53 PM 69.1 °F 26.1 °F 20% 30.24 in 10.0 mi Variable 6.9 mph - N/A   Clear
3:53 PM 68.0 °F 24.1 °F 19% 30.22 in 10.0 mi SSE 10.4 mph 17.3 mph N/A   Partly Cloudy
4:53 PM 68.0 °F 23.0 °F 18% 30.20 in 10.0 mi South 8.1 mph 20.7 mph N/A   Partly Cloudy
5:53 PM 66.9 °F 30.0 °F 25% 30.20 in 10.0 mi South 8.1 mph - N/A   Partly Cloudy
6:53 PM 66.2 °F 26.6 °F 23% 30.20 in 10.0 mi SSE 4.6 mph - N/A   Partly Cloudy
7:53 PM 60.1 °F 30.0 °F 32% 30.19 in 10.0 mi South 3.5 mph - N/A   Partly Cloudy
8:53 PM 52.0 °F 34.0 °F 50% 30.20 in 10.0 mi Calm Calm - N/A   Partly Cloudy
9:53 PM 48.0 °F 34.0 °F 58% 30.21 in 10.0 mi Calm Calm - N/A   Partly Cloudy
10:53 PM 46.0 °F 34.0 °F 63% 30.22 in 10.0 mi Calm Calm - N/A   Partly Cloudy
11:53 PM 45.0 °F 36.0 °F 71% 30.19 in 10.0 mi Calm Calm - N/A   Clear